[[{"header":{"parameterUnit":"m.s-1","parameterCategory":1,"la1":30.2991,"la2":30.254,"lo1":-89.0895,"lo2":-89.0444,"dy":0.0017,"dx":0.0017,"nx":28,"ny":28,"refTime":"2025-07-12T03:00:00:Z","depth":0,"parameterNumber":2,"parameterNumberName":"U-component_of_WINDS"},"data":[0,0,0,0,0,0,0,0,0,0,0,0,0,0,0,0,0,0,0,0,0,0,0,0,0,0,0,0,0,0,0,0,0,0,0,0,0,0,0,0,0,0,0,0,0,0,0,0,0,0,0,0,0,0,0,0,0,0,1.8847,1.8848,0,1.893,1.893,1.8931,1.8942,1.8941,1.894,1.894,1.9022,1.9025,1.9028,0,0,0,0,0,0,0,0,0,0,0,0,0,1.8696,1.8699,1.8847,1.8848,1.8849,1.8929,1.8931,1.8932,1.8942,1.8941,1.894,1.8939,1.9021,1.9025,1.9028,0,0,0,0,0,0,0,0,0,0,0,0,0,1.8768,1.87,1.8847,1.8864,1.8867,1.8929,1.8931,1.8932,1.8942,1.8941,1.894,1.8939,1.902,1.9025,1.9029,1.908,0,0,1.9042,1.9044,0,0,0,0,0,0,0,0,1.8764,1.8774,1.8861,1.8863,1.8866,1.8924,1.8908,1.8981,1.8943,1.8914,1.894,1.8938,1.8991,1.8997,1.9015,1.9083,1.9087,1.9043,1.9045,1.9047,1.9048,0,0,0,0,0,0,0,1.8759,1.877,1.888,1.8862,1.8865,1.8867,1.8876,1.8922,1.8958,1.8916,1.8917,1.8927,1.8992,1.9011,1.9017,1.9088,1.9043,1.9046,1.9049,1.9051,1.9199,1.92,0,0,0,0,0,0,1.8751,1.8766,1.8877,1.8882,1.8811,1.887,1.8881,1.8907,1.8957,1.8964,1.8928,1.8927,1.9004,1.9012,1.902,1.9081,1.9047,1.9051,1.9054,1.9198,1.9199,1.9201,0,0,0,0,0,0,1.8748,1.8761,1.8874,1.8825,1.8839,1.8874,1.8904,1.8909,1.8928,1.8966,1.8972,1.8941,1.9004,1.9014,1.9064,1.9084,1.9053,1.9057,1.9196,1.9198,1.92,1.9203,0,0,0,0,0,0,1.8744,1.876,1.8781,1.8825,1.8842,1.8917,1.8905,1.8911,1.8936,1.8936,1.898,1.8986,1.9003,1.9058,1.9069,1.9089,1.9061,1.9195,1.9197,1.9199,1.9202,1.9205,1.9208,0,0,0,0,0,1.8738,1.8779,1.8782,1.8795,1.8868,1.8918,1.8928,1.8947,1.8938,1.8958,1.8981,1.8985,1.908,1.9063,1.9075,1.9098,1.9193,1.9196,1.9199,1.92,1.9205,1.9208,0,0,0,0,0,0,1.8735,1.8785,1.8789,1.8845,1.8877,1.892,1.8946,1.8952,1.8988,1.8986,1.9008,1.9018,1.9066,1.9087,1.9067,1.9148,1.9136,1.9141,1.9132,1.9137,1.914,1.9133,1.9064,0,0,0,0,0,1.8741,1.8779,1.882,1.8865,1.8881,1.8911,1.8934,1.8946,1.898,1.8994,1.9022,1.9054,1.9091,1.9115,1.9152,1.9205,1.9214,1.9227,1.923,1.9232,1.9236,1.9264,1.9269,1.921,1.921,1.921,0,0,1.8754,1.8785,1.8808,1.8865,1.8892,1.8929,1.8922,1.8963,1.899,1.9,1.9048,1.907,1.9108,1.9159,1.9183,1.9177,1.9255,1.9236,1.9238,1.9241,1.9267,1.9273,1.9277,1.9212,1.9212,1.9212,0,0,1.8795,1.8824,1.8863,1.889,1.893,1.895,1.8959,1.9001,1.9015,1.9064,1.9072,1.9104,1.9169,1.9195,1.9216,1.9265,1.9269,1.9276,1.9293,1.9319,1.9324,1.9328,1.9343,1.9349,1.9281,1.9281,1.9281,0,1.8805,1.8862,1.8883,1.8922,1.8946,1.8957,1.8996,1.9021,1.9071,1.9087,1.9081,1.916,1.9186,1.9242,1.9254,1.9272,1.9282,1.9271,1.9322,1.9326,1.933,1.9345,1.9351,1.9281,1.9281,1.9281,1.9281,0,1.8871,1.891,1.8937,1.8985,1.9012,1.9052,1.9077,1.9102,1.9111,1.913,1.9179,1.9211,1.9253,1.9267,1.9277,1.9324,1.932,1.9317,1.9305,1.9336,1.935,1.9356,1.9282,1.9282,1.9282,1.9281,0,0,1.8913,1.8971,1.898,1.9001,1.9045,1.9076,1.9114,1.9156,1.9175,1.9209,1.9241,1.9294,1.9292,1.9316,1.9329,1.9352,1.9386,1.9347,1.9348,1.9351,1.9437,1.9437,1.9444,1.9389,1.939,1.9391,1.9433,0,1.8957,1.9027,1.9046,1.9105,1.914,1.915,1.9183,1.9214,1.9232,1.9264,1.9285,1.9321,1.9317,1.9331,1.9355,1.9377,1.9403,1.9374,1.9417,1.9418,1.9406,1.9451,1.9452,1.949,1.9439,1.944,1.9441,0,1.9019,1.9054,1.9116,1.9154,1.9169,1.9199,1.9237,1.9268,1.9302,1.9313,1.934,1.935,1.9389,1.9376,1.9429,1.9409,1.9427,1.9441,1.9443,1.9446,1.943,1.9454,1.9503,1.9508,1.945,1.945,1.9449,0,1.904,1.9103,1.9147,1.9165,1.9211,1.9231,1.9251,1.9284,1.9307,1.934,1.9355,1.9392,1.9412,1.944,1.9459,1.9448,1.951,1.9499,1.9519,1.9519,1.9531,1.953,1.9582,1.9546,1.9546,1.9545,1.9545,0,1.9087,1.9124,1.9157,1.9184,1.9225,1.9246,1.9286,1.9306,1.9335,1.9365,1.9376,1.9404,1.9429,1.946,1.9475,1.9515,1.9525,1.9534,1.9538,1.9532,1.9531,1.9544,1.9541,1.9547,1.9547,1.9546,1.9546,0,1.9118,1.9142,1.919,1.923,1.924,1.9269,1.9302,1.9328,1.9347,1.9384,1.9395,1.9424,1.9461,1.9483,1.953,1.954,1.9583,1.9587,1.9572,1.9573,1.9592,1.9589,1.9653,1.9661,1.9621,1.9621,1.9622,0,1.9145,1.9174,1.9216,1.9237,1.9257,1.9292,1.9315,1.9336,1.9359,1.9399,1.9419,1.9457,1.9488,1.9546,1.957,1.9606,1.9609,1.9628,1.9614,1.9607,1.9607,1.9604,1.9606,1.963,1.9631,1.9631,1.9631,0,1.9191,1.9201,1.9234,1.9271,1.9298,1.9328,1.9358,1.9374,1.94,1.9425,1.9463,1.9487,1.9534,1.957,1.9607,1.9627,1.9633,1.9636,1.9642,1.9636,1.9626,1.9629,1.9577,1.9634,1.9634,1.9633,1.9633,1.9633,1.922,1.9245,1.9278,1.9314,1.9338,1.9365,1.9391,1.9412,1.9444,1.9484,1.9495,1.9533,1.9565,1.9615,1.9635,1.9665,1.9662,1.9671,1.9674,1.9675,1.9674,1.9622,1.9672,1.9672,1.9672,1.9672,1.9672,0,1.9264,1.9286,1.9319,1.9359,1.9387,1.9391,1.9423,1.9446,1.948,1.9509,1.9539,1.9581,1.9616,1.9643,1.9678,1.9697,1.97,1.9705,1.9703,1.9707,1.9676,1.9666,1.9702,1.9702,1.9702,1.9702,1.9702,1.9702,1.929,1.9332,1.9346,1.9399,1.942,1.9458,1.9476,1.95,1.9523,1.957,1.9599,1.9616,1.9644,1.9681,1.9713,1.972,1.9731,1.9735,1.9743,1.9713,1.971,1.9706,1.9697,1.9738,1.9738,1.9771,1.9771,1.9771]},{"header":{"parameterUnit":"m.s-1","parameterCategory":1,"la1":30.2991,"la2":30.254,"lo1":-89.0895,"lo2":-89.0444,"dy":0.0017,"dx":0.0017,"nx":28,"ny":28,"refTime":"2025-07-12T03:00:00:Z","depth":0,"parameterNumber":3,"parameterNumberName":"V-component_of_WINDS"},"data":[0,0,0,0,0,0,0,0,0,0,0,0,0,0,0,0,0,0,0,0,0,0,0,0,0,0,0,0,0,0,0,0,0,0,0,0,0,0,0,0,0,0,0,0,0,0,0,0,0,0,0,0,0,0,0,0,0,0,5.183,5.183,0,5.183,5.183,5.183,5.1741,5.1739,5.1736,5.1734,5.1734,5.1736,5.1738,0,0,0,0,0,0,0,0,0,0,0,0,0,5.1751,5.1753,5.183,5.183,5.183,5.183,5.183,5.183,5.1741,5.1738,5.1736,5.1733,5.1733,5.1736,5.1738,0,0,0,0,0,0,0,0,0,0,0,0,0,5.1772,5.1754,5.183,5.1786,5.1782,5.183,5.183,5.183,5.1742,5.1738,5.1735,5.1732,5.1732,5.1735,5.1739,5.1829,0,0,5.1749,5.175,0,0,0,0,0,0,0,0,5.1771,5.1775,5.1792,5.1789,5.1784,5.1782,5.1802,5.1829,5.1743,5.1757,5.1734,5.173,5.1753,5.1754,5.1762,5.1829,5.1829,5.1749,5.1751,5.1752,5.1753,0,0,0,0,0,0,0,5.1769,5.1774,5.183,5.1792,5.1788,5.1765,5.1764,5.1807,5.1774,5.1756,5.1749,5.175,5.175,5.1759,5.1761,5.1829,5.1749,5.1752,5.1754,5.1755,5.1967,5.1971,0,0,0,0,0,0,5.1774,5.1774,5.183,5.183,5.1769,5.1769,5.1768,5.1786,5.1774,5.1768,5.1753,5.1746,5.1755,5.1757,5.1761,5.1863,5.1752,5.1755,5.1757,5.1964,5.1968,5.1972,0,0,0,0,0,0,5.1773,5.178,5.183,5.18,5.1804,5.1775,5.1795,5.1788,5.1797,5.1772,5.1766,5.1768,5.1752,5.1756,5.1812,5.1862,5.1757,5.176,5.1959,5.1965,5.197,5.207,0,0,0,0,0,0,5.1771,5.178,5.1815,5.1801,5.1806,5.1882,5.1798,5.1791,5.1803,5.1793,5.1785,5.178,5.175,5.1808,5.1815,5.1864,5.1762,5.1955,5.1962,5.1968,5.2063,5.2079,5.2093,0,0,0,0,0,5.1768,5.1843,5.1817,5.1824,5.1849,5.1885,5.1888,5.1852,5.1807,5.1841,5.1825,5.178,5.1856,5.1814,5.1822,5.1873,5.1951,5.196,5.1968,5.2056,5.2076,5.2092,0,0,0,0,0,0,5.1864,5.1841,5.1811,5.1884,5.1887,5.187,5.1911,5.1874,5.189,5.188,5.1835,5.1834,5.1896,5.1891,5.1844,5.1958,5.1895,5.1906,5.196,5.1978,5.1993,5.1992,5.1765,0,0,0,0,0,5.1893,5.1924,5.1903,5.1969,5.1972,5.1942,5.1956,5.1928,5.1929,5.193,5.1918,5.1921,5.1944,5.1961,5.1982,5.2062,5.2057,5.2101,5.2116,5.2128,5.2137,5.2176,5.2194,5.1999,5.1999,5.1999,0,0,5.1954,5.1946,5.1968,5.1988,5.1987,5.2019,5.1944,5.1982,5.2005,5.1936,5.1987,5.1979,5.1978,5.2046,5.2075,5.2043,5.219,5.2139,5.2149,5.2151,5.2187,5.2205,5.2222,5.2005,5.2004,5.2003,0,0,5.2082,5.208,5.2133,5.2133,5.2132,5.2112,5.2125,5.2113,5.2104,5.2155,5.2103,5.213,5.2173,5.2174,5.2181,5.2308,5.2266,5.2316,5.2394,5.2433,5.2448,5.2461,5.2504,5.252,5.2325,5.2325,5.2326,0,5.2158,5.2205,5.2166,5.2206,5.2216,5.2155,5.2208,5.221,5.2216,5.2224,5.2188,5.2239,5.2235,5.23,5.2331,5.2339,5.2351,5.2316,5.2449,5.2462,5.2474,5.2514,5.2531,5.2331,5.2331,5.233,5.2329,0,5.2297,5.2331,5.2374,5.238,5.2395,5.2442,5.2409,5.2428,5.2399,5.2382,5.2433,5.2426,5.2443,5.2457,5.243,5.2519,5.2498,5.2457,5.2392,5.2499,5.2536,5.2551,5.234,5.2338,5.2336,5.2334,0,0,5.2484,5.2467,5.2484,5.2485,5.2479,5.2504,5.2548,5.2564,5.258,5.2587,5.2621,5.2659,5.2619,5.2626,5.2598,5.2633,5.2731,5.2586,5.2585,5.2611,5.2826,5.2856,5.2874,5.2704,5.2707,5.2709,5.2825,0,5.2605,5.2679,5.2644,5.2721,5.275,5.2692,5.2729,5.2729,5.2715,5.2737,5.272,5.2746,5.2694,5.2697,5.2729,5.2712,5.2773,5.2704,5.2734,5.2736,5.2733,5.2894,5.2926,5.3036,5.2839,5.2842,5.2844,0,5.2757,5.2768,5.2848,5.2834,5.2845,5.288,5.2891,5.2913,5.2912,5.2898,5.2906,5.287,5.291,5.2848,5.2903,5.2857,5.2867,5.2861,5.2864,5.2864,5.2795,5.2896,5.307,5.3086,5.2867,5.2865,5.2863,0,5.2882,5.2918,5.2969,5.2972,5.2959,5.2984,5.2979,5.2974,5.2986,5.2996,5.3002,5.3018,5.3026,5.3038,5.3006,5.2964,5.3065,5.3001,5.3054,5.3055,5.3076,5.3074,5.3252,5.3087,5.3087,5.3086,5.3086,0,5.302,5.307,5.3024,5.3056,5.311,5.307,5.3124,5.3114,5.3109,5.3137,5.3089,5.3116,5.3073,5.3096,5.3072,5.312,5.3124,5.3114,5.3106,5.3117,5.3118,5.3121,5.3112,5.3091,5.309,5.3089,5.3088,0,5.3168,5.314,5.3191,5.3174,5.3171,5.3211,5.3196,5.3224,5.3205,5.3241,5.3247,5.3218,5.3242,5.3212,5.3234,5.3217,5.3282,5.3264,5.3282,5.3276,5.333,5.3324,5.3514,5.3536,5.3359,5.3361,5.3363,0,5.3257,5.3294,5.328,5.3294,5.3292,5.3317,5.3328,5.329,5.3303,5.3304,5.3331,5.3351,5.3365,5.3406,5.3387,5.3403,5.3383,5.3449,5.3385,5.3394,5.3382,5.3379,5.3381,5.3461,5.3463,5.3465,5.3466,0,5.3416,5.34,5.3417,5.343,5.3444,5.3453,5.3457,5.3472,5.3432,5.345,5.3473,5.3484,5.3505,5.3525,5.3535,5.353,5.3491,5.3487,5.3499,5.3509,5.3517,5.3511,5.3315,5.3482,5.3481,5.3479,5.3479,5.3478,5.3535,5.3565,5.3559,5.3579,5.3579,5.3584,5.3608,5.3592,5.3611,5.3625,5.3601,5.3631,5.3627,5.3637,5.3636,5.3658,5.363,5.3649,5.3653,5.3658,5.3665,5.3516,5.366,5.366,5.3659,5.3659,5.3659,0,5.369,5.3683,5.3703,5.371,5.3726,5.3688,5.3691,5.3706,5.3733,5.3732,5.3746,5.3772,5.3791,5.3773,5.3788,5.3809,5.3792,5.3815,5.3811,5.381,5.3691,5.3677,5.3828,5.3828,5.3828,5.3828,5.3828,5.3828,5.3772,5.3819,5.3802,5.3847,5.384,5.3867,5.3872,5.3876,5.3875,5.3906,5.3921,5.3909,5.3901,5.3915,5.393,5.3925,5.3931,5.396,5.3948,5.3836,5.3819,5.3803,5.379,5.3962,5.3963,5.4065,5.4066,5.4067]}]]